QPF
0.00 0.00 0.00 0.00 0.00 0.00 0.00 0.00 0.00 0.00 0.00 0.00 0.00 0.00 0.00 0.00 0.00 0.00 0.00 0.00 0.00 0.00 0.00 0.00 0.00 0.00 0.00 0.00 0.00 0.00 0.00 0.00 0.00 0.00 0.00 0.00 0.00 0.00 0.00 0.00 0.00 0.00 0.00 0.00 0.00
0.00 0.00 0.00 0.00 0.00 0.00 0.00 0.00 0.00 0.00 0.00 0.00 0.00 0.00 0.00 0.00 0.00 0.00 0.00 0.00 0.00 0.00 0.00 0.00 0.00 0.00 0.00 0.00 0.00 0.00 0.00 0.00 0.00 0.00 0.00 0.00 0.00 0.00 0.00 0.00 0.00 0.00 0.00 0.00 0.00
0.00 0.00 0.00 0.00 0.00 0.00 0.00 0.00 0.00 0.00 0.00 0.00 0.00 0.00 0.00 0.00 0.00 0.00 0.00 0.00 0.00 0.00 0.00 0.00 0.00 0.00 0.00 0.00 0.00 0.00 0.00 0.00 0.00 0.00 0.00 0.00 0.00 0.00 0.00 0.00 0.00 0.00 0.00 0.00 0.00
0.00 0.00 0.00 0.00 0.00 0.00 0.00 0.00 0.00 0.00 0.00 0.00 0.00 0.00 0.00 0.00 0.00 0.00 0.00 0.00 0.00 0.00 0.00 0.00 0.00 0.00 0.00 0.00 0.00 0.00 0.00 0.00 0.00 0.00 0.00 0.00 0.00 0.00 0.00 0.00 0.00 0.00 0.00 0.00 0.00
0.00 0.00 0.00 0.00 0.00 0.00 0.00 0.00 0.00 0.00 0.00 0.00 0.00 0.00 0.00 0.00 0.00 0.00 0.00 0.00 0.00 0.00 0.00 0.00 0.00 0.00 0.00 0.00 0.00 0.00 0.00 0.00 0.00 0.00 0.00 0.00 0.00 0.00 0.00 0.00 0.00 0.00 0.00 0.00 0.00
0.00 0.00 0.00 0.00 0.00 0.00 0.00 0.00 0.00 0.00 0.00 0.00 0.00 0.00 0.00 0.00 0.00 0.00 0.00 0.00 0.00 0.00 0.00 0.00 0.00 0.00 0.00 0.00 0.00 0.00 0.00 0.00 0.00 0.00 0.00 0.00 0.00 0.00 0.00 0.00 0.00 0.00 0.00 0.00 0.00
0.00 0.00 0.00 0.00 0.00 0.00 0.00 0.00 0.00 0.00 0.00 0.00 0.00 0.00 0.00 0.00 0.00 0.00 0.00 0.00 0.00 0.00 0.00 0.00 0.00 0.00 0.00 0.00 0.00 0.00 0.00 0.00 0.00 0.00 0.00 0.00 0.00 0.00 0.00 0.00 0.00 0.00 0.00 0.00 0.00
0.00 0.00 0.00 0.00 0.00 0.00 0.00 0.00 0.00 0.00 0.00 0.00 0.00 0.00 0.00 0.00 0.00 0.00 0.00 0.00 0.00 0.00 0.00 0.00 0.00 0.00 0.00 0.00 0.00 0.00 0.00 0.00 0.00 0.00 0.00 0.00 0.00 0.00 0.00 0.00 0.00 0.00 0.00 0.00 0.00
0.00 0.00 0.00 0.00 0.00 0.00 0.00 0.00 0.00 0.00 0.00 0.00 0.00 0.00 0.00 0.00 0.00 0.00 0.00 0.00 0.00 0.00 0.00 0.00 0.00 0.00 0.00 0.00 0.00 0.00 0.00 0.00 0.00 0.00 0.00 0.00 0.00 0.00 0.00 0.00 0.00 0.00 0.00 0.00 0.00
0.00 0.00 0.00 0.00 0.00 0.00 0.00 0.00 0.00 0.00 0.00 0.00 0.00 0.00 0.00 0.00 0.00 0.00 0.00 0.00 0.00 0.00 0.00 0.00 0.00 0.00 0.00 0.00 0.00 0.00 0.00 0.00 0.00 0.00 0.00 0.00 0.00 0.00 0.00 0.00 0.00 0.00 0.00 0.00 0.00
0.00 0.00 0.00 0.00 0.00 0.00 0.00 0.00 0.00 0.00 0.00 0.00 0.00 0.00 0.00 0.00 0.00 0.00 0.00 0.00 0.00 0.00 0.00 0.00 0.00 0.00 0.00 0.00 0.00 0.00 0.00 0.00 0.00 0.00 0.00 0.00 0.00 0.00 0.00 0.00 0.00 0.00 0.00 0.00 0.00
0.00 0.00 0.00 0.00 0.00 0.00 0.00 0.00 0.00 0.00 0.00 0.00 0.00 0.00 0.00 0.00 0.00 0.00 0.00 0.00 0.00 0.00 0.00 0.00 0.00 0.00 0.00 0.00 0.00 0.00 0.00 0.00 0.00 0.00 0.00 0.00 0.00 0.00 0.00 0.00 0.00 0.00 0.00 0.00 0.00
0.00 0.00 0.00 0.00 0.00 0.00 0.00 0.00 0.00 0.00 0.00 0.00 0.00 0.00 0.00 0.00 0.00 0.00 0.00 0.00 0.00 0.00 0.00 0.00 0.00 0.00 0.00 0.00 0.00 0.00 0.00 0.00 0.00 0.00 0.00 0.00 0.00 0.00 0.00 0.00 0.00 0.00 0.00 0.00 0.00
0.00 0.00 0.00 0.00 0.00 0.00 0.00 0.00 0.00 0.00 0.00 0.00 0.00 0.00 0.00 0.00 0.00 0.00 0.00 0.00 0.00 0.00 0.00 0.00 0.00 0.00 0.00 0.00 0.00 0.00 0.00 0.00 0.00 0.00 0.00 0.00 0.00 0.00 0.00 0.00 0.00 0.00 0.00 0.00 0.00
0.00 0.00 0.00 0.00 0.00 0.00 0.00 0.00 0.00 0.00 0.00 0.00 0.00 0.00 0.00 0.00 0.00 0.00 0.00 0.00 0.00 0.00 0.00 0.00 0.00 0.00 0.00 0.00 0.00 0.00 0.00 0.00 0.00 0.00 0.00 0.00 0.00 0.00 0.00 0.00 0.00 0.00 0.00 0.00 0.00
0.00 0.00 0.00 0.00 0.00 0.00 0.00 0.00 0.00 0.00 0.00 0.00 0.00 0.00 0.00 0.00 0.00 0.00 0.00 0.00 0.00 0.00 0.00 0.00 0.00 0.00 0.00 0.00 0.00 0.00 0.00 0.00 0.00 0.00 0.00 0.00 0.00 0.00 0.00 0.00 0.00 0.00 0.00 0.00 0.00
0.00 0.00 0.00 0.00 0.00 0.00 0.00 0.00 0.00 0.00 0.00 0.00 0.00 0.00 0.00 0.00 0.00 0.00 0.00 0.00 0.00 0.00 0.00 0.00 0.00 0.00 0.00 0.00 0.00 0.00 0.00 0.00 0.00 0.00 0.00 0.00 0.00 0.00 0.00 0.00 0.00 0.00 0.00 0.00 0.00
0.00 0.00 0.00 0.00 0.00 0.00 0.00 0.00 0.00 0.00 0.00 0.00 0.00 0.00 0.00 0.00 0.00 0.00 0.00 0.00 0.00 0.00 0.00 0.00 0.00 0.00 0.00 0.00 0.00 0.00 0.00 0.00 0.00 0.00 0.00 0.00 0.00 0.00 0.00 0.00 0.00 0.00 0.00 0.00 0.00
0.00 0.00 0.00 0.00 0.00 0.00 0.00 0.00 0.00 0.00 0.00 0.00 0.00 0.00 0.00 0.00 0.00 0.00 0.00 0.00 0.00 0.00 0.00 0.00 0.00 0.00 0.00 0.00 0.00 0.00 0.00 0.00 0.01 0.01 0.01 0.00 0.00 0.00 0.00 0.00 0.00 0.00 0.00 0.00 0.00
0.00 0.00 0.00 0.00 0.00 0.00 0.00 0.00 0.00 0.00 0.00 0.00 0.00 0.00 0.00 0.00 0.00 0.00 0.00 0.00 0.00 0.00 0.00 0.00 0.00 0.00 0.00 0.00 0.00 0.00 0.00 0.01 0.02 0.02 0.01 0.00 0.00 0.00 0.00 0.00 0.00 0.00 0.00 0.00 0.00
0.00 0.00 0.00 0.00 0.00 0.00 0.00 0.00 0.00 0.00 0.00 0.00 0.00 0.00 0.00 0.00 0.00 0.00 0.00 0.00 0.00 0.00 0.00 0.00 0.01 0.00 0.00 0.00 0.00 0.00 0.00 0.01 0.01 0.02 0.02 0.01 0.00 0.00 0.00 0.00 0.00 0.00 0.00 0.00 0.00
0.00 0.00 0.00 0.00 0.00 0.00 0.00 0.00 0.00 0.00 0.00 0.00 0.00 0.00 0.00 0.00 0.00 0.00 0.00 0.00 0.00 0.00 0.00 0.00 0.00 0.00 0.00 0.00 0.00 0.00 0.01 0.02 0.01 0.02 0.02 0.02 0.00 0.00 0.00 0.00 0.00 0.00 0.00 0.00 0.00
0.00 0.00 0.00 0.00 0.00 0.00 0.00 0.00 0.00 0.00 0.00 0.00 0.00 0.00 0.00 0.00 0.00 0.00 0.00 0.00 0.00 0.00 0.00 0.00 0.00 0.00 0.00 0.00 0.00 0.00 0.01 0.02 0.01 0.01 0.01 0.02 0.00 0.00 0.00 0.00 0.00 0.00 0.00 0.00 0.00
0.00 0.00 0.00 0.00 0.00 0.00 0.00 0.00 0.00 0.00 0.00 0.00 0.00 0.00 0.00 0.00 0.00 0.00 0.00 0.00 0.00 0.00 0.00 0.00 0.00 0.00 0.00 0.00 0.00 0.01 0.01 0.01 0.02 0.01 0.01 0.01 0.00 0.00 0.00 0.00 0.00 0.00 0.00 0.00 0.00
0.00 0.00 0.00 0.00 0.00 0.00 0.00 0.00 0.00 0.00 0.00 0.00 0.00 0.00 0.00 0.00 0.00 0.00 0.00 0.00 0.00 0.00 0.00 0.00 0.00 0.00 0.00 0.00 0.00 0.00 0.00 0.00 0.00 0.00 0.01 0.00 0.00 0.00 0.00 0.00 0.00 0.00 0.00 0.00 0.00
0.00 0.00 0.00 0.00 0.00 0.00 0.00 0.00 0.00 0.00 0.00 0.00 0.00 0.00 0.00 0.00 0.00 0.00 0.00 0.00 0.00 0.00 0.00 0.00 0.00 0.00 0.00 0.00 0.00 0.00 0.00 0.00 0.00 0.00 0.01 0.01 0.00 0.00 0.00 0.00 0.00 0.00 0.00 0.00 0.00
0.00 0.00 0.00 0.00 0.00 0.00 0.00 0.00 0.00 0.00 0.00 0.00 0.00 0.00 0.00 0.00 0.00 0.00 0.00 0.00 0.00 0.00 0.00 0.00 0.00 0.01 0.00 0.00 0.00 0.00 0.00 0.00 0.00 0.00 0.00 0.00 0.00 0.00 0.00 0.00 0.00 0.00 0.00 0.00 0.00
MSLP
1019.48 1019.21 1019.04 1018.85 1018.73 1018.58 1018.36 1018.15 1017.92 1017.66 1017.36 1017.09 1016.76 1016.37 1015.98 1015.65 1014.48 1013.66 1013.66 1014.64 1014.30 1014.17 1013.65 1012.44 1011.64 1011.47 1011.02 1010.45 1010.22 1009.67 1007.60 1005.71 1005.58 1006.06 1005.90 1007.13 1007.12 1007.04 1007.64 1007.45 1006.41 1005.73 1005.20 1005.01 1005.26
1019.42 1019.18 1018.99 1018.80 1018.56 1018.40 1018.26 1018.08 1017.89 1017.63 1017.35 1017.09 1016.84 1016.56 1016.24 1015.84 1013.64 1013.70 1014.81 1014.64 1014.47 1014.05 1012.61 1011.79 1011.19 1011.06 1010.32 1010.26 1010.11 1009.22 1007.69 1006.39 1007.38 1007.28 1007.48 1007.78 1007.78 1007.45 1007.53 1007.00 1006.46 1005.69 1005.00 1005.03 1005.10
1019.38 1019.06 1018.82 1018.64 1018.44 1018.23 1018.04 1017.89 1017.68 1017.46 1017.21 1017.02 1016.78 1016.48 1016.11 1015.66 1013.54 1013.68 1014.65 1014.66 1014.46 1013.90 1012.88 1012.28 1011.58 1010.86 1010.13 1010.18 1010.08 1009.44 1008.16 1008.16 1008.06 1008.27 1008.52 1008.25 1007.80 1007.47 1007.04 1006.66 1006.24 1005.80 1005.19 1005.10 1005.16
1019.35 1018.98 1018.76 1018.52 1018.29 1018.06 1017.87 1017.66 1017.46 1017.24 1017.08 1016.82 1016.53 1016.21 1015.76 1014.86 1013.41 1013.76 1014.39 1014.42 1014.23 1013.49 1012.22 1011.65 1011.00 1010.44 1010.13 1009.88 1010.35 1009.70 1009.08 1009.00 1008.61 1008.62 1008.46 1008.15 1007.86 1007.05 1006.85 1006.44 1006.44 1006.24 1005.48 1005.17 1005.13
1019.29 1018.87 1018.59 1018.40 1018.13 1017.88 1017.69 1017.47 1017.27 1017.10 1016.87 1016.46 1016.14 1015.86 1015.51 1013.26 1013.17 1013.64 1014.26 1014.16 1013.47 1012.86 1012.19 1011.62 1011.07 1010.73 1010.24 1010.34 1010.30 1009.76 1009.37 1009.37 1009.08 1008.72 1008.25 1008.16 1007.59 1006.92 1006.33 1006.26 1006.30 1005.90 1005.38 1005.02 1004.90
1019.27 1018.80 1018.46 1018.26 1018.01 1017.70 1017.48 1017.29 1016.98 1016.78 1016.56 1016.23 1015.80 1015.35 1013.77 1012.78 1013.32 1013.44 1013.42 1013.43 1013.02 1012.46 1012.12 1011.74 1011.55 1011.58 1010.76 1010.46 1010.35 1010.00 1009.89 1009.37 1008.69 1008.32 1008.05 1007.72 1007.04 1006.73 1006.13 1005.86 1005.99 1005.60 1005.18 1004.72 1004.70
1019.15 1018.76 1018.40 1018.10 1017.89 1017.62 1017.34 1017.15 1016.84 1016.49 1016.18 1015.93 1015.57 1014.63 1012.80 1013.04 1013.06 1013.03 1013.04 1012.68 1012.81 1012.64 1012.10 1012.04 1011.95 1011.54 1011.10 1010.16 1010.38 1010.16 1009.58 1008.63 1008.38 1008.00 1007.68 1007.68 1006.28 1005.32 1006.04 1006.18 1005.72 1005.42 1005.12 1004.71 1004.53
1019.18 1018.70 1018.28 1017.90 1017.66 1017.43 1017.14 1016.87 1016.62 1016.37 1016.00 1015.74 1015.51 1014.22 1012.62 1012.83 1012.80 1012.63 1012.45 1012.18 1012.54 1012.53 1012.50 1012.22 1011.98 1011.50 1011.08 1010.68 1010.15 1009.59 1009.02 1007.70 1007.24 1007.54 1007.19 1007.79 1005.38 1005.24 1005.94 1005.97 1005.52 1005.37 1005.05 1004.60 1004.21
1019.27 1018.69 1018.23 1017.80 1017.43 1017.16 1016.86 1016.60 1016.39 1016.26 1015.95 1015.52 1014.72 1013.42 1012.10 1012.73 1012.30 1012.14 1012.15 1011.80 1011.88 1012.02 1012.00 1012.28 1011.83 1011.13 1010.80 1009.96 1008.58 1008.57 1007.92 1007.51 1007.23 1007.46 1007.40 1007.25 1005.36 1005.21 1005.80 1005.60 1005.28 1004.92 1004.65 1004.34 1003.93
1019.39 1018.73 1018.10 1017.64 1017.30 1017.04 1016.78 1016.51 1016.25 1016.09 1015.46 1014.74 1014.30 1013.42 1011.96 1012.16 1012.24 1012.16 1011.95 1012.12 1011.68 1011.49 1011.03 1011.02 1010.73 1010.11 1009.38 1009.06 1008.52 1008.69 1008.36 1007.80 1007.37 1007.13 1006.77 1006.16 1005.16 1004.94 1004.81 1004.41 1004.44 1004.30 1004.09 1003.83 1003.47
1019.37 1018.71 1018.07 1017.51 1017.08 1016.90 1016.63 1016.04 1015.69 1014.74 1013.70 1013.61 1013.31 1012.83 1012.36 1012.31 1012.19 1011.64 1011.71 1011.68 1011.58 1011.08 1010.29 1010.63 1010.38 1009.14 1009.82 1010.12 1009.99 1009.71 1009.03 1008.04 1007.43 1007.06 1006.54 1005.72 1004.89 1004.44 1004.38 1003.83 1003.54 1003.39 1003.02 1002.92 1002.67
1019.44 1018.68 1017.98 1017.42 1016.97 1016.74 1015.96 1014.62 1014.99 1014.92 1013.59 1013.49 1013.24 1012.92 1012.64 1012.59 1011.79 1011.36 1011.84 1011.50 1011.16 1010.52 1010.32 1009.60 1008.98 1009.78 1010.20 1010.17 1009.92 1009.43 1008.60 1007.52 1007.04 1006.69 1006.50 1005.18 1003.80 1003.89 1003.45 1003.05 1002.80 1002.56 1002.08 1002.04 1001.94
1019.33 1018.68 1017.94 1017.35 1016.98 1016.61 1015.22 1015.05 1014.82 1014.69 1013.42 1012.72 1012.53 1012.12 1012.11 1012.29 1011.69 1011.62 1011.78 1011.52 1011.04 1010.69 1010.20 1009.93 1009.58 1010.07 1010.05 1009.61 1009.21 1008.66 1008.19 1007.66 1007.42 1006.83 1005.78 1004.65 1002.46 1001.90 1001.77 1001.82 1002.04 1002.04 1001.82 1001.66 1001.56
1019.25 1018.59 1017.91 1017.23 1017.37 1015.48 1014.80 1015.21 1014.98 1014.84 1012.98 1012.25 1011.76 1011.77 1011.61 1011.57 1011.56 1011.92 1011.92 1011.89 1011.10 1010.76 1010.66 1009.90 1009.94 1009.98 1009.66 1009.23 1009.58 1008.57 1008.26 1008.24 1007.46 1006.43 1004.56 1004.69 1001.77 1001.92 1001.48 1001.03 1001.28 1001.08 1001.13 1000.98 1000.82
1019.28 1018.54 1017.73 1017.14 1015.93 1014.72 1015.25 1014.92 1014.80 1014.77 1012.45 1012.22 1011.69 1011.84 1011.48 1011.66 1011.69 1011.22 1012.05 1011.66 1011.22 1011.04 1011.24 1009.59 1009.97 1009.89 1009.66 1009.57 1009.84 1008.91 1008.68 1008.05 1007.18 1005.96 1004.86 1003.60 1002.56 1000.66 1000.80 1000.30 1000.26 1000.60 1000.80 1000.89 1000.67
1019.08 1018.28 1017.42 1016.22 1015.54 1015.24 1015.10 1014.99 1014.68 1013.53 1011.97 1011.83 1011.74 1011.67 1011.39 1011.34 1011.49 1011.44 1011.58 1011.61 1012.07 1011.44 1010.74 1009.94 1010.04 1010.33 1009.74 1009.83 1009.47 1009.30 1008.37 1007.02 1006.39 1005.26 1003.71 1002.44 1002.57 1000.38 999.85 1000.18 1000.25 1000.78 1000.67 1000.68 1000.41
1018.77 1017.93 1017.29 1016.02 1015.02 1015.10 1015.01 1014.33 1013.13 1012.26 1012.58 1012.01 1012.06 1011.93 1011.78 1011.54 1011.54 1011.50 1011.52 1011.27 1011.54 1011.16 1010.29 1009.86 1009.36 1010.01 1010.30 1009.37 1008.66 1008.90 1008.41 1006.01 1004.37 1003.44 1002.01 1002.52 1002.34 1000.68 1000.27 1000.29 1000.48 1000.67 1000.92 1000.56 1000.27
1018.31 1017.47 1016.72 1015.71 1015.28 1015.27 1014.63 1013.34 1012.46 1012.50 1012.38 1012.58 1012.54 1012.28 1011.86 1012.01 1011.70 1011.70 1011.60 1011.11 1011.76 1012.02 1011.05 1010.22 1009.25 1009.67 1009.72 1009.50 1009.04 1008.78 1008.87 1008.06 1006.53 1004.48 1003.40 1002.85 1001.16 999.92 1000.23 1000.44 1000.46 1000.72 1000.86 1000.50 1000.07
1017.90 1016.14 1015.22 1015.36 1015.46 1015.07 1013.92 1012.70 1012.38 1013.00 1013.48 1013.42 1012.91 1012.21 1011.91 1012.15 1012.10 1011.95 1011.44 1011.25 1011.54 1011.90 1011.62 1010.75 1009.73 1009.44 1009.22 1009.36 1009.68 1008.78 1008.93 1008.94 1008.26 1006.60 1004.77 1002.42 1001.03 999.94 999.61 1000.06 1000.26 1000.56 1000.44 1000.12 999.93
1018.18 1016.04 1015.23 1015.26 1015.28 1014.57 1013.22 1013.24 1013.20 1013.83 1014.08 1013.82 1013.17 1012.81 1012.18 1012.18 1012.48 1011.95 1011.48 1011.30 1011.61 1012.02 1012.20 1011.51 1010.41 1009.37 1009.50 1009.08 1008.71 1009.17 1009.32 1009.18 1009.49 1007.40 1004.63 1002.20 1001.14 999.70 999.56 999.84 1000.04 1000.08 1000.15 1000.05 1000.04
1017.92 1015.42 1015.04 1015.03 1014.72 1013.52 1012.92 1013.40 1013.87 1014.08 1014.41 1014.04 1013.42 1013.20 1012.91 1012.87 1012.82 1012.34 1011.75 1011.50 1011.96 1011.95 1012.44 1011.84 1011.39 1009.58 1009.10 1008.12 1007.81 1008.81 1009.37 1010.42 1010.81 1009.66 1006.97 1003.78 1001.87 1001.70 1000.54 1000.25 999.93 999.96 999.94 1000.00 999.96
1018.00 1015.12 1015.24 1014.72 1013.82 1014.13 1013.92 1014.88 1015.50 1014.42 1014.53 1014.39 1014.12 1013.72 1013.60 1013.68 1013.32 1012.81 1012.07 1011.90 1012.23 1012.60 1012.16 1011.89 1011.45 1009.75 1008.56 1008.12 1008.12 1008.20 1008.47 1009.87 1010.78 1009.35 1008.49 1006.40 1003.49 1002.63 1001.60 1000.75 1000.68 1000.58 1000.24 1000.27 1000.41
1018.67 1016.55 1015.58 1015.21 1014.12 1014.45 1014.96 1015.26 1015.34 1014.83 1014.54 1014.52 1014.26 1014.19 1014.18 1014.10 1014.04 1013.17 1012.72 1012.49 1012.65 1012.66 1012.14 1012.12 1011.24 1009.90 1007.58 1007.51 1008.20 1007.95 1008.78 1010.38 1010.52 1009.96 1008.41 1006.96 1003.53 1003.44 1003.34 1003.02 1002.67 1002.05 1000.80 1000.36 1000.50
1019.43 1016.75 1015.69 1015.84 1016.60 1016.55 1015.93 1015.03 1015.15 1015.25 1015.21 1015.16 1014.67 1014.62 1014.45 1014.14 1013.90 1013.40 1012.84 1012.62 1012.95 1012.92 1012.99 1013.30 1011.68 1010.66 1008.97 1007.72 1007.70 1007.41 1007.46 1007.54 1008.25 1008.56 1007.52 1005.88 1004.00 1003.06 1002.98 1003.39 1003.15 1002.52 1001.75 1001.08 1000.75
1019.79 1018.34 1018.68 1016.60 1016.28 1017.32 1017.16 1016.16 1015.46 1015.17 1015.50 1015.46 1014.59 1014.58 1014.32 1014.67 1014.11 1013.50 1012.95 1012.70 1012.36 1012.06 1012.25 1012.23 1010.89 1010.18 1009.10 1008.00 1007.47 1006.84 1006.05 1006.12 1006.09 1006.04 1006.24 1005.16 1004.06 1003.16 1003.62 1003.74 1003.15 1002.84 1002.56 1001.66 1000.85
1020.61 1019.75 1019.06 1018.19 1017.79 1017.46 1017.00 1016.06 1015.91 1015.50 1016.04 1015.15 1015.22 1014.92 1014.73 1014.44 1014.05 1013.41 1013.39 1013.11 1012.20 1011.55 1011.46 1011.50 1010.79 1010.39 1009.35 1008.60 1007.48 1005.60 1004.79 1004.68 1004.56 1004.32 1004.49 1004.32 1003.77 1003.61 1004.12 1003.98 1003.46 1002.77 1002.16 1001.24 1000.98
1021.71 1021.15 1020.43 1018.55 1017.77 1017.53 1016.50 1016.25 1016.07 1016.16 1015.92 1015.82 1015.54 1015.44 1014.84 1014.46 1014.24 1014.22 1013.76 1012.62 1011.77 1011.28 1011.01 1011.39 1011.49 1010.92 1009.09 1008.21 1006.96 1005.12 1002.96 1003.31 1003.58 1003.87 1004.38 1003.97 1002.67 1002.66 1002.74 1003.34 1002.84 1002.32 1002.22 1001.36 1000.82
Thickness
5702 5703 5702 5701 5700 5700 5701 5702 5703 5704 5706 5707 5708 5709 5711 5712 5720 5728 5718 5713 5714 5712 5715 5722 5725 5723 5725 5721 5724 5726 5721 5729 5731 5723 5724 5732 5727 5737 5735 5729 5745 5758 5770 5779 5787
5702 5702 5701 5700 5700 5701 5701 5702 5703 5703 5704 5705 5705 5706 5706 5707 5724 5715 5707 5706 5705 5707 5715 5714 5712 5714 5713 5710 5709 5710 5713 5723 5719 5721 5707 5713 5715 5720 5715 5719 5727 5742 5766 5773 5775
5702 5703 5703 5702 5702 5702 5703 5703 5703 5703 5703 5703 5702 5703 5703 5703 5716 5707 5703 5701 5700 5702 5706 5707 5707 5706 5702 5703 5698 5699 5699 5704 5706 5707 5700 5697 5706 5715 5710 5705 5717 5725 5742 5755 5759
5702 5704 5704 5704 5704 5704 5704 5704 5704 5703 5703 5702 5702 5702 5702 5707 5695 5706 5698 5695 5694 5696 5702 5699 5698 5692 5688 5685 5686 5679 5690 5689 5692 5695 5692 5688 5699 5703 5705 5708 5713 5719 5733 5742 5746
5702 5704 5705 5705 5705 5705 5704 5704 5703 5702 5701 5702 5702 5701 5702 5708 5698 5700 5691 5688 5691 5693 5689 5686 5683 5680 5675 5675 5674 5672 5676 5677 5680 5684 5687 5685 5684 5691 5699 5706 5708 5714 5719 5728 5737
5702 5705 5706 5705 5705 5705 5704 5703 5703 5702 5701 5700 5700 5700 5708 5691 5700 5694 5690 5687 5686 5685 5680 5680 5672 5671 5669 5667 5662 5667 5662 5664 5673 5674 5676 5673 5677 5683 5691 5701 5697 5702 5709 5716 5726
5702 5703 5705 5705 5704 5704 5703 5702 5701 5701 5700 5698 5697 5698 5703 5688 5695 5691 5686 5685 5679 5674 5669 5671 5669 5663 5663 5661 5662 5656 5649 5660 5662 5666 5665 5667 5670 5678 5682 5684 5687 5690 5698 5706 5713
5700 5702 5704 5704 5704 5703 5702 5701 5700 5698 5697 5694 5692 5694 5687 5695 5689 5687 5684 5680 5675 5671 5665 5665 5664 5658 5655 5658 5653 5646 5649 5647 5663 5660 5666 5654 5660 5674 5675 5671 5676 5680 5685 5694 5704
5697 5700 5701 5702 5703 5702 5701 5700 5698 5694 5693 5692 5693 5691 5683 5692 5684 5685 5681 5672 5670 5666 5664 5658 5656 5650 5650 5645 5652 5647 5639 5642 5646 5655 5652 5649 5657 5667 5668 5666 5666 5674 5678 5684 5693
5694 5697 5699 5701 5701 5699 5698 5697 5695 5691 5690 5690 5687 5679 5688 5674 5679 5678 5679 5670 5663 5661 5657 5653 5650 5647 5653 5646 5632 5627 5628 5636 5634 5647 5650 5650 5654 5663 5665 5667 5664 5667 5672 5678 5686
5692 5694 5697 5699 5699 5697 5694 5698 5698 5693 5696 5684 5680 5675 5676 5679 5680 5674 5674 5665 5659 5656 5648 5648 5635 5639 5631 5628 5625 5620 5618 5623 5636 5645 5641 5643 5648 5653 5655 5659 5658 5662 5667 5673 5685
5688 5691 5694 5696 5696 5694 5694 5695 5686 5683 5679 5681 5677 5674 5675 5672 5661 5668 5668 5652 5649 5643 5648 5649 5642 5639 5632 5625 5618 5616 5616 5625 5635 5641 5634 5642 5650 5650 5651 5650 5654 5656 5663 5667 5680
5686 5688 5691 5693 5692 5692 5695 5687 5686 5681 5674 5676 5676 5671 5669 5667 5658 5655 5658 5650 5644 5638 5641 5632 5639 5635 5626 5623 5618 5620 5614 5617 5614 5626 5637 5638 5654 5653 5656 5653 5646 5646 5651 5658 5666
5684 5685 5687 5690 5688 5695 5689 5683 5680 5676 5665 5664 5667 5667 5670 5665 5650 5657 5654 5643 5641 5633 5632 5636 5638 5627 5623 5619 5612 5608 5621 5612 5611 5616 5622 5631 5630 5636 5641 5638 5633 5635 5640 5647 5660
5679 5682 5685 5686 5691 5691 5682 5680 5677 5668 5647 5664 5662 5671 5666 5652 5648 5649 5650 5641 5631 5630 5626 5633 5622 5617 5611 5610 5606 5605 5612 5610 5612 5616 5619 5625 5620 5640 5636 5626 5629 5626 5630 5636 5648
5676 5679 5683 5687 5687 5683 5679 5675 5669 5654 5641 5654 5657 5649 5648 5649 5644 5645 5640 5642 5632 5626 5630 5629 5628 5614 5614 5609 5608 5604 5605 5615 5615 5618 5613 5627 5612 5627 5631 5622 5623 5621 5624 5629 5639
5674 5677 5679 5680 5680 5678 5674 5670 5658 5646 5656 5647 5640 5644 5640 5637 5635 5634 5628 5627 5617 5609 5618 5625 5623 5614 5607 5604 5613 5600 5591 5604 5621 5627 5630 5625 5605 5617 5627 5625 5620 5615 5615 5624 5634
5672 5675 5677 5676 5675 5671 5670 5664 5644 5649 5646 5648 5639 5637 5629 5630 5631 5627 5622 5621 5618 5607 5607 5604 5602 5605 5607 5600 5595 5593 5585 5580 5571 5603 5608 5619 5605 5624 5627 5625 5621 5615 5613 5620 5627
5668 5677 5678 5673 5668 5667 5664 5649 5649 5641 5636 5628 5631 5628 5629 5626 5623 5619 5619 5618 5616 5610 5596 5596 5602 5613 5608 5601 5590 5588 5578 5587 5575 5590 5585 5610 5620 5630 5630 5619 5615 5609 5609 5612 5620
5659 5670 5669 5667 5664 5663 5660 5633 5641 5636 5628 5625 5615 5622 5617 5619 5609 5614 5612 5619 5609 5607 5603 5596 5585 5608 5598 5602 5599 5585 5587 5571 5561 5563 5582 5614 5608 5611 5617 5611 5611 5609 5606 5607 5612
5656 5665 5666 5663 5662 5661 5647 5641 5634 5633 5624 5617 5617 5612 5613 5607 5605 5606 5607 5613 5606 5601 5596 5594 5584 5597 5601 5598 5596 5579 5568 5556 5547 5554 5562 5584 5602 5604 5608 5610 5610 5609 5611 5608 5609
5646 5657 5657 5658 5652 5643 5636 5624 5612 5622 5619 5612 5610 5608 5603 5597 5595 5597 5599 5600 5601 5591 5584 5591 5583 5584 5594 5604 5599 5590 5582 5562 5542 5557 5547 5557 5573 5598 5601 5607 5603 5600 5604 5605 5601
5633 5639 5648 5645 5637 5632 5626 5616 5612 5611 5610 5604 5600 5599 5597 5589 5577 5591 5593 5598 5593 5584 5582 5583 5581 5574 5596 5596 5585 5579 5571 5543 5536 5535 5538 5541 5580 5582 5576 5575 5577 5580 5594 5598 5597
5615 5626 5635 5628 5613 5604 5606 5613 5605 5605 5597 5593 5593 5591 5587 5585 5586 5581 5584 5588 5582 5576 5571 5562 5572 5572 5576 5588 5586 5575 5577 5576 5556 5530 5543 5561 5571 5586 5579 5566 5567 5571 5579 5586 5589
5601 5604 5594 5609 5609 5590 5589 5596 5595 5592 5589 5585 5587 5582 5581 5563 5570 5575 5581 5578 5583 5581 5572 5568 5572 5578 5584 5589 5583 5579 5582 5579 5570 5565 5541 5561 5568 5576 5568 5558 5562 5561 5562 5573 5582
5581 5584 5587 5589 5585 5582 5580 5588 5583 5584 5573 5578 5570 5573 5572 5563 5566 5566 5568 5564 5569 5578 5572 5570 5564 5568 5568 5574 5576 5583 5588 5583 5580 5578 5565 5562 5558 5565 5557 5552 5549 5555 5562 5572 5575
5563 5565 5565 5578 5579 5572 5580 5577 5573 5569 5570 5566 5563 5558 5561 5560 5561 5556 5556 5566 5567 5567 5567 5558 5547 5549 5560 5573 5575 5569 5596 5588 5580 5572 5555 5547 5572 5574 5565 5552 5551 5557 5557 5567 5573